Weather in Broumov

Czech Republic     50°35′06″N   16°19′59″E
temp.,
°C
wind,
m/s
gust,
m/s
humid.,
%
clouds,
%
prec.,
mm/h
press.,
hPa
HPBL,
m
20 april, tue
tue2023:00+4nne22935 0.0 101717
02:00+4nne229358 0.0 101715
05:00+4n229486 0.0 101625
08:00+7n128061 0.0 101679
11:00+12ene225056 0.0 10161628
14:00+12nne114970 0.3 10141505
17:00+13nw124857 0.3 10131451
20:00+7nne117318 0.4 101410
21 april, wed
wed2123:00+6sse017947 0.0 101410
02:00+5ssw118731 0.0 101512
05:00+3sw11945 0.0 101414
08:00+6sw228711 0.0 1015194
11:00+11wsw45673 0.3 1014988
14:00+14w564019 0.5 10122212
17:00+13wnw454378 0.0 10112009
20:00+7n226947 0.0 101311
22 april, thu
thu2223:00+5n117446 0.0 101410
02:00+4nne1184100 0.0 101414
05:00+4wnw1290100 0.2 1015237
08:00+3wsw2485100 1.3 1016568
11:00+6wsw3453100 0.0 10171289
14:00+8w6940100 0.0 10162221
17:00+7wnw794289 0.0 10162319
20:00+3w36658 0.1 1018140
23 april, fri
fri2323:000wsw228160 0.0 102028
02:00−2sw22945 0.0 102122
05:00−2sw11979 0.0 102220
08:00+2wsw24745 0.0 1023430
11:00+6wnw4644100 0.1 10232008
14:00+8nw5639100 0.1 10232304
17:00+8nnw564572 0.0 10241800
20:00+3nw22665 0.0 102513
24 april, sat
sat2423:00+1sw11730 0.0 102610
02:000ssw22820 0.0 102617
05:00−1ssw228727 0.0 102524
08:00+3sw25705 0.0 1025334
11:00+8wsw575364 0.0 10231254
14:00+11w5640100 0.0 10211709
17:00+10nw4547100 0.0 10211547
20:00+4n2274100 0.0 102326